EW2649 Weather Reports


Display with metric or nautical units.
time (UTC)temp
F
wind
direction
speed
MPH
gust
MPH
rain 1hr
in
rain 24hr
in
rain mn
in
humidity
%
barometer
mb
20260905174503 72 349 2.0 9.0 0.00 0.00 0.00 52 1010.7
20260905173104 72 290 2.0 8.0 0.00 0.00 0.00 52 1010.6
20260905171553 71 333 2.0 6.0 0.00 0.00 0.00 56 1010.7
20260905170050 69 306 1.0 4.0 0.00 0.00 0.00 60 1010.6
20260905164545 68 272 0.0 0.0 0.00 0.00 0.00 62 1010.7
20260905163042 66 34 0.0 3.0 0.00 0.00 0.00 65 1010.7
20260905161536 64 108 2.0 6.0 0.00 0.00 0.00 68 1010.8
20260905160035 61 175 0.0 3.0 0.00 0.00 0.00 77 1010.9
20260905154528 59 168 1.0 3.0 0.00 0.00 0.00 82 1011.0
20260905153023 56 168 0.0 2.0 0.00 0.00 0.00 87 1011.2
20260905151519 53 169 0.0 3.0 0.00 0.00 0.00 91 1011.0
20260905150015 50 176 1.0 3.0 0.00 0.00 0.00 92 1011.0
20260905144511 47 173 4.0 6.0 0.00 0.00 0.00 92 1010.8
20260905143006 46 183 2.0 4.0 0.00 0.00 0.00 91 1010.9
20260905141504 45 182 2.0 3.0 0.00 0.00 0.00 91 1011.0
20260905140100 45 183 2.0 4.0 0.00 0.00 0.00 91 1010.8
20260905134602 45 181 2.0 4.0 0.00 0.00 0.00 91 1010.7
20260905133059 45 176 3.0 4.0 0.00 0.00 0.00 91 1010.5
20260905131601 45 170 4.0 6.0 0.00 0.00 0.00 91 1010.6
20260905130054 44 207 3.0 4.0 0.00 0.00 0.00 91 1010.7
20260905124551 45 186 3.0 4.0 0.00 0.00 0.00 91 1010.6
20260905123051 45 177 2.0 4.0 0.00 0.00 0.00 91 1010.7
20260905121548 45 185 3.0 4.0 0.00 0.00 0.00 91 1010.7
20260905120047 45 184 3.0 4.0 0.00 0.00 0.00 90 1010.7
20260905114547 45 180 2.0 4.0 0.00 0.00 0.00 90 1010.8
20260905113045 45 197 2.0 4.0 0.00 0.00 0.00 90 1010.8
20260905111543 46 187 3.0 4.0 0.00 0.00 0.00 90 1010.8
20260905110055 45 189 3.0 5.0 0.00 0.00 0.00 90 1010.9
20260905104541 45 194 3.0 5.0 0.00 0.01 0.00 90 1010.8
20260905103045 46 183 2.0 3.0 0.00 0.01 0.00 90 1010.8
20260905101549 46 179 2.0 5.0 0.00 0.01 0.00 90 1010.9
20260905100035 46 188 2.0 4.0 0.00 0.01 0.00 90 1011.0
20260905094534 46 191 3.0 4.0 0.00 0.01 0.00 89 1011.1
20260905093032 47 192 3.0 4.0 0.00 0.01 0.00 89 1011.1
20260905091530 47 201 2.0 3.0 0.00 0.01 0.00 88 1011.2
20260905090032 47 223 3.0 6.0 0.00 0.01 0.00 89 1011.3
20260905084527 47 159 4.0 6.0 0.00 0.01 0.00 89 1011.3
20260905083026 47 198 5.0 6.0 0.00 0.01 0.00 88 1011.3
20260905081528 47 176 2.0 5.0 0.00 0.01 0.00 88 1011.2
20260905080021 48 199 4.0 7.0 0.00 0.01 0.00 88 1011.2
20260905074527 48 190 3.0 5.0 0.00 0.01 0.00 88 1011.2
20260905073017 49 172 3.0 5.0 0.00 0.01 0.00 88 1011.3
20260905071518 49 190 3.0 6.0 0.00 0.01 0.00 87 1011.1
20260905070012 49 166 5.0 7.0 0.00 0.01 0.00 88 1011.1
20260905064528 49 160 5.0 7.0 0.00 0.01 0.01 88 1011.0
20260905063026 50 153 5.0 7.0 0.00 0.01 0.01 88 1011.0
20260905061522 50 179 4.0 7.0 0.00 0.01 0.01 88 1011.0
20260905060020 50 185 3.0 4.0 0.00 0.01 0.01 87 1011.0
20260905054521 51 187 3.0 5.0 0.00 0.06 0.01 85 1011.1
20260905053015 51 178 2.0 4.0 0.00 0.06 0.01 84 1011.1
20260905051513 52 188 3.0 5.0 0.00 0.06 0.01 83 1011.1
20260905050011 53 135 3.0 5.0 0.00 0.06 0.01 82 1011.2
20260905044511 54 206 3.0 4.0 0.00 0.06 0.01 79 1011.1
20260905043009 55 196 1.0 4.0 0.00 0.06 0.01 78 1010.9
20260905041508 55 157 1.0 6.0 0.00 0.06 0.01 78 1010.8
20260905040006 55 154 2.0 5.0 0.00 0.06 0.01 76 1010.6
20260905034505 56 267 0.0 2.0 0.00 0.06 0.01 73 1010.4
20260905033005 58 227 0.0 1.0 0.00 0.06 0.01 72 1010.2
20260905031505 59 227 0.0 3.0 0.00 0.06 0.01 70 1010.1
20260905030004 61 225 2.0 4.0 0.00 0.06 0.01 66 1009.9
20260905024505 63 325 1.0 2.0 0.00 0.06 0.01 57 1009.9
20260905023007 64 325 2.0 5.0 0.00 0.06 0.01 55 1009.8
20260905021505 66 28 1.0 6.0 0.00 0.06 0.01 53 1009.7
20260905020001 68 295 1.0 6.0 0.00 0.06 0.01 50 1009.5
20260905014501 69 275 4.0 9.0 0.00 0.06 0.01 46 1009.4
20260905013000 70 306 4.0 8.0 0.00 0.06 0.01 45 1009.4
20260905011600 72 325 2.0 7.0 0.00 0.06 0.01 44 1009.3
20260905010059 73 279 2.0 9.0 0.00 0.06 0.01 42 1009.3
20260905004628 74 327 3.0 8.0 0.00 0.06 0.01 41 1009.2
20260905003059 74 328 4.0 9.0 0.00 0.06 0.01 41 1009.2
20260905001558 74 341 7.0 14.0 0.00 0.06 0.01 44 1009.1
20260905000058 73 317 5.0 14.0 0.00 0.06 0.01 43 1009.1
20260904234557 75 321 7.0 13.0 0.00 0.06 0.01 39 1009.1
20260904233057 76 329 4.0 12.0 0.00 0.06 0.01 39 1009.1
20260904231555 75 240 5.0 10.0 0.00 0.06 0.01 36 1009.3
20260904230122 75 209 6.0 12.0 0.00 0.06 0.01 40 1009.3
20260904224552 75 209 6.0 14.0 0.00 0.06 0.01 45 1009.3
20260904223051 75 153 6.0 12.0 0.00 0.06 0.01 47 1009.3
20260904221551 76 188 5.0 10.0 0.00 0.06 0.01 47 1009.4
20260904220048 76 67 5.0 11.0 0.00 0.06 0.01 47 1009.6
20260904214543 76 12 5.0 12.0 0.00 0.06 0.01 47 1009.6
20260904213039 75 24 5.0 11.0 0.00 0.06 0.01 49 1009.6
20260904211535 74 24 2.0 9.0 0.00 0.06 0.01 51 1009.7
20260904210035 72 23 4.0 14.0 0.00 0.06 0.01 55 1009.7
20260904204534 72 23 5.0 13.0 0.00 0.06 0.01 55 1009.6
20260904203034 73 103 4.0 10.0 0.00 0.06 0.01 56 1009.7
20260904201532 71 360 1.0 6.0 0.00 0.06 0.01 59 1009.7
20260904200032 72 11 2.0 10.0 0.00 0.06 0.01 56 1009.7
20260904194531 72 294 3.0 7.0 0.00 0.06 0.01 57 1009.8
20260904193037 73 348 2.0 9.0 0.00 0.06 0.01 57 1009.9
20260904191526 72 36 4.0 10.0 0.00 0.06 0.01 58 1010.1
20260904190035 72 76 6.0 11.0 0.00 0.06 0.01 59 1010.1
20260904184519 71 200 3.0 5.0 0.00 0.06 0.01 53 1010.1
20260904183014 70 76 3.0 8.0 0.00 0.06 0.01 55 1010.2
20260904181510 69 326 1.0 6.0 0.00 0.06 0.01 56 1010.3
20260904180007 69 171 1.0 5.0 0.00 0.06 0.01 58 1010.4